Location: Baia Mare
(47.6567°N, 23.5850°E)
Time: 22:42:08
(UTC+03:00)

ISS - Pass Details

Date: 24 July 2018
Orbit: 402 x 408 km, 51.6° (Epoch: 17 July)

Event Time Altitude Azimuth Distance (km) Brightness Sun altitude
Rises 22:54:41 0° 265° (W) 2,318 0.5 -13.9°
Reaches altitude 10° 22:56:48 10° 272° (W) 1,461 -0.5 -14.1°
Maximum altitude 22:59:59 47° 348° (NNW) 543 -2.8 -14.4°
Drops below altitude 10° 23:03:11 10° 64° (ENE) 1,467 -1.1 -14.8°
Sets 23:05:19 0° 70° (ENE) 2,329 -0.1 -15.0°
Enters shadow 23:05:24 - 70° (ENE) 2,359 -0.1 -15.0°
